Volver al catálogo

STARLINK-30610

ActivoComunicacionesVLEO
NORAD 58082·PAYLOAD·🇺🇸 United States

Lanzado Oct 18, 2023 desde Cape Canaveral Space Force Station

Loading…

Próximos Pases (próximas 24 horas)

TLE

ActualizadoSource: CelesTrak SupGP

Época: Sep 15, 2026, 02:10 UTC

1 58082C 23160H   26258.09076389  .00005332  00000+0  19306-3 0  2582
2 58082  43.0030  88.6076 0001960 271.2082 249.3409 15.27586005    19

Sigue STARLINK-30610 en tiempo real con AllMySat

Download on the App Store